AirNav   Pilot Hours Calculator
 
 338 users online  

WS50 Mercy Medical Center Heliport
Oshkosh, Wisconsin, USA

GOING TO OSHKOSH?


FAA INFORMATION EFFECTIVE 20 JUNE 2019

Location

FAA Identifier: WS50
Lat/Long: 44-00-50.2900N / 088-35-58.7700W
44-00.838167N / 088-35.979500W
44.0139694 / -88.5996583
(estimated)
Elevation: 775 ft. / 236 m (estimated)
Variation: 01W (1985)
Time zone: UTC -5 (UTC -6 during Standard Time)
Zip code: 54901

Heliport Operations

Heliport use: Private use, MEDICAL USE.
Activation date: 12/1987
Control tower: no
ARTCC: CHICAGO CENTER
FSS: GREEN BAY FLIGHT SERVICE STATION
Attendance: CONTINUOUS
Wind indicator: yes
Segmented circle: no
Lights: FOR PERIMETER & FLOOD LGTS CALL 414-236-2000.

Heliport Communications

WX ASOS at OSH (2.6 nm SE): PHONE 920-426-1644
WX AWOS-3 at ATW (15 nm N): PHONE 920-832-2597
WX ASOS at FLD (15 nm S): 134.0 (920-922-4444)

Nearby radio navigation aids

VOR radial/distance  VOR name  Freq  Var
OSHr305/2.4OSHKOSH VORTAC111.8002E
FAHr296/35.6FALLS VOR/DME110.0002W
GRBr207/36.8GREEN BAY VORTAC115.5001E

 
NDB name  Hdg/Dist  Freq  Var  ID
POBER351/8.639503WOS --- ...
KOOKY218/14.940702WAQ .- --.-
JUNEAU008/35.434401WUNU ..- -. ..-

Heliport Services

Runway Information

Helipad H1

Dimensions: 40 x 40 ft. / 12 x 12 m
Surface: concrete
Runway edge lights: PERI
FLOOD LGTS.
Latitude: 44-00.838167N
Longitude: 088-35.979500W
Elevation: 775.0 ft.
Traffic pattern: leftleft

Heliport Ownership and Management from official FAA records

Ownership: Privately-owned
Owner: MERCY MEDICAL CENTER
631 HAZEL ST
OSHKOSH, WI 54902
Phone 414-236-2000
Manager: GEORGE R. THOMAS
631 HAZEL ST.
OSHKOSH, WI 54902
Phone 414-236-2022

Additional Remarks

A52-H1 POWER LINES 250 FT N OF HOSPITAL.
FOR CD CTC CHICAGO ARTCC AT 630-906-8921.

Instrument Procedures

There are no published instrument procedures at WS50.

Some nearby airports with instrument procedures:

KOSH - Wittman Regional Airport (3 nm SE)
KATW - Appleton International Airport (15 nm N)
KFLD - Fond Du Lac County Airport (15 nm S)
8D1 - New Holstein Municipal Airport (21 nm E)
KPCZ - Waupaca Municipal Airport (26 nm NW)
 
Loc | Ops | Rwys | IFR | FBO | Links
Com | Nav | Svcs | Stats | Notes
Area around WS50 (Mercy Medical Center Heliport)
 
Road maps at: MapQuest Bing Google
 
Aerial photo
No photo
 
Sectional chart

 
Airport distance calculator
Flying to Mercy Medical Center Heliport? Find the distance to fly.

From to WS50

Sunrise and sunset
Times for 25-Jun-2019
 Local
(UTC-5)
 Zulu
(UTC)
Morning civil twilight04:3709:37
Sunrise05:1410:14
Sunset20:4001:40
Evening civil twilight21:1702:17

Current date and time
Zulu (UTC)  25-Jun-2019 09:03:10
Local (UTC-5)  25-Jun-2019 04:03:10
 
METAR
KOSH 
4nm SE 
250853Z AUTO 25005KT 10SM CLR 16/13 A2971 RMK AO2 SLP055 T01560133 53018
KATW 
15nm N 
250835Z AUTO 26008KT 10SM CLR 15/13 A2969 RMK AO2
KFLD 
16nm S 
250853Z AUTO 25007KT 10SM CLR 17/13 A2972 RMK AO2 SLP063 T01670133 53017
TAF
KATW 
15nm N 
250729Z 2507/2606 26010KT P6SM SCT020 SCT100 FM251200 25009KT P6SM SCT250 FM251500 25012G21KT P6SM SCT050 FM260100 25008KT P6SM SCT050 FM260300 25007KT P6SM SKC
NOTAMs
Click for the latest NOTAMs
NOTAMs are issued by the DoD/FAA and will open in a separate window not controlled by AirNav.

 

 
 

Would you like to see your business listed on this page?

 If your business provides an interesting product or service to pilots, flight crews, aircraft, or users of the Mercy Medical Center Heliport, you should consider listing it here.  To start the listing process, click on the button below
 
Add a business
 

Other Pages about Mercy Medical Center Heliport

Update a link
 
Copyright © AirNav, LLC. All rights reserved. Privacy Policy  Contact